Printer-friendly version

IAU Minor Planet Center

Minor Planet Center

MPEC 2009-U60 : 2009 UR5

The following Minor Planet Electronic Circular may be linked-to from your own Web pages, but must not otherwise be redistributed electronically.


Read MPEC 2009-U59 Read MPEC 2009-U61


M.P.E.C. 2009-U60                                Issued 2009 Oct. 21, 17:08 UT

     The Minor Planet Electronic Circulars contain information on unusual
         minor planets and routine data on comets.  They are published
   on behalf of Commission 20 of the International Astronomical Union by the
          Minor Planet Center, Smithsonian Astrophysical Observatory,
                          Cambridge, MA 02138, U.S.A.

             Prepared using the Tamkin Foundation Computer Network

                              MPC@CFA.HARVARD.EDU
          URL http://www.cfa.harvard.edu/iau/mpc.html  ISSN 1523-6714

                                   2009 UR5

Observations:
     K09U05R* C2009 10 21.40941 02 57 51.55 +29 55 58.0          20.5 V EU060G96
     K09U05R  C2009 10 21.41617 02 57 46.15 +29 55 14.9          20.1 V EU060G96
     K09U05R  C2009 10 21.42301 02 57 40.57 +29 54 29.4          21.3 V EU060G96
     K09U05R  C2009 10 21.42991 02 57 35.02 +29 53 44.4          20.4 V EU060G96
     K09U05R  C2009 10 21.47667 02 56 57.57 +29 48 32.7          20.4 V EU060G96
     K09U05R  C2009 10 21.48814 02 56 48.53 +29 47 15.9          20.5 V EU060G96
     K09U05R  C2009 10 21.50122 02 56 38.36 +29 45 46.9                 EU060G96
     K09U05R  C2009 10 21.50248 02 56 37.09 +29 45 37.9          20.0 V EU060G96
     K09U05R  C2009 10 21.50349 02 56 36.38 +29 45 31.2          20.5 V EU060G96
     K09U05R  C2009 10 21.50412 02 56 35.84 +29 45 27.6          20.5 V EU060G96
     K09U05R  C2009 10 21.50544 02 56 34.83 +29 45 17.8          20.6 V EU060G96
     K09U05R 6C2009 10 21.59481002 55 27.76 +29 36 15.9          20.5 R EU060F65

Observer details:
F65 Haleakala-Faulkes Telescope North.  Observer R. Miles.  2.0-m f/10.0
    Ritchey-Chretien + CCD.
G96 Mt. Lemmon Survey.  Observer A. D. Grauer.  Measurers E. C. Beshore,
    A. Boattini, G. J. Garradd, A. R. Gibbs, A. D. Grauer, R. E. Hill,
    R. A. Kowalski, S. M. Larson, R. H. McNaught.  1.5-m reflector + CCD.

Orbital elements:
2009 UR5                                                 Earth MOID = 0.0187 AU
Epoch 2010 Jan. 4.0 TT = JDT 2455200.5                  MPC
M 317.04442              (2000.0)            P               Q
n   1.46698079     Peri.  341.23925     -0.96056234     +0.26866356
a   0.7671020      Node   214.60158     -0.23623343     -0.92446888
e   0.3900699      Incl.    7.25293     -0.14667567     -0.27051281
P   0.67           H   25.5           G   0.15           U   9
Residuals in seconds of arc
091021 G96  0.1+  0.4-    091021 G96  0.9-  0.2-    091021 G96  0.1+  0.2-
091021 G96  0.6+  0.6+    091021 G96  0.1+  0.4+    091021 G96  0.5-  0.5+
091021 G96  0.3-  0.2-    091021 G96  2.5+  0.1+    091021 G96  0.1-  0.3-
091021 G96  0.4-  0.2+    091021 G96  1.1-  0.4-    091021 F65  0.1-  0.1+

Ephemeris:
2009 UR5                 a,e,i = 0.77, 0.39, 7                   q = 0.4679
Date    TT    R. A. (2000) Decl.     Delta      r     Elong.  Phase     V
2009 10 16    03 50.03   +36 08.0    0.0803   1.057   137.0    40.0    21.7
2009 10 18    03 34.03   +34 28.5    0.0717   1.054   142.4    35.2    21.3
2009 10 20    03 14.35   +32 08.6    0.0636   1.051   148.9    29.3    20.9
2009 10 22    02 50.36   +28 50.4    0.0562   1.047   156.7    22.1    20.4
2009 10 24    02 21.61   +24 11.3    0.0497   1.043   165.9    13.5    19.9
2009 10 26    01 48.10   +17 49.6    0.0445   1.038   173.7     6.1    19.3
2009 10 28    01 10.70   +09 40.6    0.0411   1.033   165.3    14.1    19.4
2009 10 30    00 31.21   +00 19.4    0.0400   1.028   150.6    28.3    19.8
2009 11 01    23 52.08   -09 00.6    0.0411   1.022   135.5    42.9    20.3
2009 11 03    23 15.53   -17 08.1    0.0444   1.016   121.7    56.1    20.8
2009 11 05    22 42.98   -23 32.3    0.0492   1.009   110.0    67.4    21.4

Sonia Keys                   (C) Copyright 2009 MPC           M.P.E.C. 2009-U60

Read MPEC 2009-U59 Read MPEC 2009-U61

Valid HTML 4.01!